Location: Napier
(39.4830°S, 176.9170°E)
Time: 03:20:45
(UTC+12:00)

IRIDIUM 106 - Pass Details

Date: 15 August 2020
Orbit: 776 x 779 km, 86.4° (Epoch: 19 September)

Event Time Altitude Azimuth Distance (km) Brightness Sun altitude
Rises 19:19:45 0° 180° (S) 3,299 7.6 -20.8°
Reaches altitude 10° 19:22:09 10° 177° (S) 2,364 6.8 -21.3°
Maximum altitude 19:27:25 67° 94° (E) 853 4.2 -22.3°
Drops below altitude 10° 19:32:38 10° 11° (N) 2,333 6.7 -23.3°
Sets 19:34:59 0° 8° (N) 3,253 7.5 -23.8°
